Location: Unspecified
(49.2170°N, 0.0000°E)
Time: 09:31:50
(UTC+00:00)

Vanguard 3 - Pass Details

Date: 25 June 2019
Orbit: 508 x 3263 km, 33.3° (Epoch: 16 August)

Event Time Altitude Azimuth Distance (km) Brightness Sun altitude
Rises 14:58:57 0° 261° (W) 4,905 11.8 47.0°
Reaches altitude 10° 15:04:39 10° 239° (WSW) 3,252 11.2 46.1°
Maximum altitude 15:08:05 13° 213° (SSW) 2,599 10.5 45.6°
Drops below altitude 10° 15:10:54 10° 185° (S) 2,533 10.0 45.2°
Sets 15:14:19 0° 157° (SSE) 3,105 10.1 44.6°
